FEDERAL MOGUL PT MANITOWAC
FEDERAL MOGUL PT MANITOWAC's Shipments Over Time
Purchase Ratings
Shipment Reliability and Frequency Volume of Goods
Avg. Shipments per Month: 4.58 Average TEU per month: 5.38
Active Months: 10 Average TEU per Shipment: 1.17
Shipment Frequency Std. Dev.: 3.32
Shipments By Companies
Company Name Shipments
FEDERAL MOGUL GOETZE I LTD 57 shipments
Shipments By HS Code
HS Code Shipments
841590.0 Air conditioning machines; comprising a motor driven fan and elements for changing the temperature and humidity, including those machines in which the humidity cannot be separately regulated 50 shipments
841590 Air conditioning machines; comprising a motor driven fan and elements for changing the temperature and humidity, including those machines in which the humidity cannot be separately regulated : Air conditioning machines; with motor driven fan and elements for temperature control, parts thereof 4 shipments
to show market analysis.
Similar Companies
to see more.
Latest Shipments
Arrival Date Bill Of Lading Shipper Weight HS Code Description
2026-05-14 DSVFRAF0228117 FEDERAL MOGUL GOETZE I LTD 15493.0 kg 841590 AUTOMOTIVE PARTS-SHIM BLANK
2026-04-25 DSVFIX98004906 FEDERAL MOGUL GOETZE I LTD 15656.0 kg 841590.0 AUTOMOTIVE PARTS-SHIM BLANK
2026-04-25 DSVFIX98004907 FEDERAL MOGUL GOETZE I LTD 15960.0 kg 841590.0 AUTOMOTIVE PARTS-SHIM BLANK
2026-04-17 DSVFRAF0190844 FEDERAL MOGUL GOETZE I LTD 15339.0 kg 841590.0 AUTOMOTIVE PARTS
2026-04-17 DSVFIX98004883 FEDERAL MOGUL GOETZE I LTD 14066.0 kg 841590.0 AUTOMOTIVE PARTS-SHIM BLANK
2026-04-17 DSVFIX98004884 FEDERAL MOGUL GOETZE I LTD 14233.0 kg 841590.0 AUTOMOTIVE PARTS-SHIM BLANK
2026-04-12 DSVFIX98004865 FEDERAL MOGUL GOETZE I LTD 16185.0 kg 841590.0 AUTOMOTIVE PARTS-SHIM BLANK
2026-04-12 DSVFIX98004875 FEDERAL MOGUL GOETZE I LTD 15375.0 kg 841590.0 AUTOMOTIVE PARTS-SHIM BLANK
2026-04-08 DSVFRAF0190401 FEDERAL MOGUL GOETZE I LTD 15519.0 kg 841590.0 AUTOMOTIVE PARTS
2026-03-13 DSVFIX98004812 FEDERAL MOGUL GOETZE I LTD 16115.0 kg 841590.0 AUTOMOTIVE PARTS-SHIM BLANK
2026-03-13 DSVFIX98004820 FEDERAL MOGUL GOETZE I LTD 15490.0 kg 841590.0 AUTOMOTIVE PARTS-SHIM BLANK
2026-03-13 DSVFIX98004828 FEDERAL MOGUL GOETZE I LTD 16475.0 kg 841590.0 AUTOMOTIVE PARTS-SHIM BLANK
2026-03-13 DSVFIX98004829 FEDERAL MOGUL GOETZE I LTD 15820.0 kg 841590.0 AUTOMOTIVE PARTS-SHIM BLANK
2026-03-13 DSVFIX98004846 FEDERAL MOGUL GOETZE I LTD 15500.0 kg 841590.0 AUTOMOTIVE PARTS-SHIM BLANK
2026-03-06 DSVFIX98004793 FEDERAL MOGUL GOETZE I LTD 15349.0 kg 841590.0 AUTOMOTIVE PARTS-SHIM BLANK
2026-03-06 DSVFIX98004796 FEDERAL MOGUL GOETZE I LTD 16189.0 kg 841590.0 AUTOMOTIVE PARTS-SHIM BLANK
2026-03-02 DSVFIX98004786 FEDERAL MOGUL GOETZE I LTD 15561.0 kg 841590.0 AUTOMOTIVE PARTS-SHIM BLANK
2026-02-21 DSVFBLR8093928 FEDERAL MOGUL GOETZE I LTD 48343.0 kg INV NO : DTD : /DEC/INV NO : DTD : /DEC/INV NO : DTD : /DEC/RING BLANKSNET WT : , KGSHS CODE : SB NO : DTD : /DEC/DSV HBL NO : BLRSCAC CODE : DSVF . .
2026-02-20 DSVFIX98004761 FEDERAL MOGUL GOETZE I LTD 14789.0 kg 841590.0 AUTOMOTIVE PARTS-SHIM BLANK
2026-02-14 DSVFIX98004725 FEDERAL MOGUL GOETZE I LTD 16422.0 kg 841590.0 AUTOMOTIVE PARTS-SHIM BLANK
2026-02-14 DSVFIX98004729 FEDERAL MOGUL GOETZE I LTD 16423.0 kg 841590.0 AUTOMOTIVE PARTS-SHIM BLANK
2026-02-11 DSVFIX98004741 FEDERAL MOGUL GOETZE I LTD 15768.0 kg 841590.0 AUTOMOTIVE PARTS-SHIM BLANK
2026-01-30 DSVFBLR8092451 FEDERAL MOGUL GOETZE I LTD 32841.0 kg . INV NO : DTD : /NOV/INV NO : DTD : /NOV/RING BLANKSNET W T : , KGSHS CODE : SB NO : DTD : /DEC/DSV HBL NO : BLRSC AC CODE : DSVF .
2026-01-30 DSVFIX98004705 FEDERAL MOGUL GOETZE I LTD 16665.0 kg 841590.0 AUTOMOTIVE PARTS-SHIM BLANK
2026-01-30 DSVFIX98004715 FEDERAL MOGUL GOETZE I LTD 16644.0 kg 841590.0 AUTOMOTIVE PARTS-SHIM BLANK
2026-01-21 DSVFIX98004700 FEDERAL MOGUL GOETZE I LTD 16642.0 kg 841590.0 AUTOMOTIVE PARTS-SHIM BLANK
2026-01-17 DSVFIX98004664 FEDERAL MOGUL GOETZE I LTD 16243.0 kg 841590.0 AUTOMOTIVE PARTS-SHIM BLANK
2026-01-17 DSVFIX98004678 FEDERAL MOGUL GOETZE I LTD 16571.0 kg 841590.0 AUTOMOTIVE PARTS-SHIM BLANK
2026-01-17 DSVFIX98004676 FEDERAL MOGUL GOETZE I LTD 16559.0 kg 841590.0 AUTOMOTIVE PARTS-SHIM BLANK
2026-01-08 DSVFIX98004661 FEDERAL MOGUL GOETZE I LTD 16091.0 kg 841590.0 AUTOMOTIVE PARTS-SHIM BLANK
2026-01-07 DSVFIX98004641 FEDERAL MOGUL GOETZE I LTD 16323.0 kg 841590.0 AUTOMOTIVE PARTS-SHIM BLANK
2026-01-07 DSVFIX98004651 FEDERAL MOGUL GOETZE I LTD 14018.0 kg 841590.0 AUTOMOTIVE PARTS-SHIM BLANK
2025-12-27 DSVFIX98004629 FEDERAL MOGUL GOETZE I LTD 14699.0 kg 841590.0 AUTOMOTIVE PARTS-SHIM BLANK
2025-12-18 DSVFBLR8090831 FEDERAL MOGUL GOETZE I LTD 32428.0 kg . . INV NO : DTD : /OCT/ RING BLA NKS NET WT : , KGSHS CODE : SB N O : DTD : /NOV/ DSV HBL NO : BLR SCAC CODE : DSVF
2025-12-03 DSVFIX98004591 FEDERAL MOGUL GOETZE I LTD 13519.0 kg 841590.0 AUTOMOTIVE PARTS-SHIM BLANK
2025-11-29 DSVFIX98004543 FEDERAL MOGUL GOETZE I LTD 13924.0 kg 841590.0 AUTOMOTIVE PARTS-SHIM BLANK
2025-11-29 DSVFIX98004548 FEDERAL MOGUL GOETZE I LTD 12622.0 kg 841590.0 AUTOMOTIVE PARTS-SHIM BLANK
2025-11-29 DSVFIX98004562 FEDERAL MOGUL GOETZE I LTD 13860.0 kg 841590.0 AUTOMOTIVE PARTS-SHIM BLANK
2025-11-29 DSVFIX98004577 FEDERAL MOGUL GOETZE I LTD 14922.0 kg 841590.0 AUTOMOTIVE PARTS-SHIM BLANK
2025-11-13 DSVFIX98004493 FEDERAL MOGUL GOETZE I LTD 14831.0 kg 841590.0 AUTOMOTIVE PARTS-SHIM BLANK
2025-11-13 DSVFIX98004532 FEDERAL MOGUL GOETZE I LTD 12966.0 kg 841590.0 AUTOMOTIVE PARTS-SHIM BLANK
2025-11-04 DSVFIX98004471 FEDERAL MOGUL GOETZE I LTD 13704.0 kg 841590.0 AUTOMOTIVE PARTS-SHIM BLANK
2025-10-23 DSVFIX98004513 FEDERAL MOGUL GOETZE I LTD 15592.0 kg 841590.0 AUTOMOTIVE PARTS-SHIM BLANK
2025-10-21 DSVFIX98004425 FEDERAL MOGUL GOETZE I LTD 14921.0 kg 841590.0 AUTOMOTIVE PARTS-SHIM BLANK
2025-10-21 DSVFIX98004426 FEDERAL MOGUL GOETZE I LTD 13967.0 kg 841590.0 AUTOMOTIVE PARTS-SHIM BLANK
2025-10-16 DSVFIX98004424 FEDERAL MOGUL GOETZE I LTD 13758.0 kg 841590.0 AUTOMOTIVE PARTS-SHIM BLANK
2025-09-26 DSVFIX98004423 FEDERAL MOGUL GOETZE I LTD 15677.0 kg 841590.0 AUTOMOTIVE PARTS-SHIM BLANK
2025-09-17 DSVFIX98004396 FEDERAL MOGUL GOETZE I LTD 12438.0 kg 841590.0 AUTOMOTIVE PARTS-SHIM BLANK
2025-09-17 DSVFIX98004397 FEDERAL MOGUL GOETZE I LTD 13710.0 kg 841590.0 AUTOMOTIVE PARTS-SHIM BLANK
2025-09-10 DSVFIX98004380 FEDERAL MOGUL GOETZE I LTD 14291.0 kg 841590.0 AUTOMOTIVE PARTS-SHIM BLANK
Contact information
Search contact information on RocketReach
Other address